Weather History for KI75 - September, 2013

Change the Weather History Date:

Friday, September 20, 2013

  Actual Average (KLWD) Record (KLWD)
Temperature  
Mean Temperature 60 °F 63 °F  
Max Temperature 69 °F 75 °F 90 °F (1948)
Min Temperature 51 °F 52 °F 35 °F (1991)
Degree Days  
Heating Degree Days 4 4  
Month to date heating degree days 37  
Since 1 July heating degree days 45  
Cooling Degree Days 0 2  
Month to date cooling degree days 78  
Year to date cooling degree days 916  
Growing Degree Days 10 (Base 50)    
Moisture  
Dew Point 49 °F    
Average Humidity 70    
Maximum Humidity 85    
Minimum Humidity 48    
Precipitation  
Precipitation 0.07 in 0.11 in 2.64 in (1965)
Month to date precipitation 2.52  
Sea Level Pressure  
Sea Level Pressure 29.97 in    
Wind  
Wind Speed 9 mph (WNW)    
Max Wind Speed 18 mph    
Max Gust Speed 23 mph    
Visibility 10 miles    
Events      
T = Trace of Precipitation, MM = Missing Value Source: NWS Daily Summary

Daily Weather History Graph

Daily Weather History Graph

Search for Another Location

Airport or City:

Trip Planner

Search our weather history database for the weather conditions in past years. The results will help you decide how hot, cold, wet, or windy it might be!

Date:

Astronomy

Sep. 20, 2013 Rise Set
Actual Time 7:00 AM CDT 7:14 PM CDT
Civil Twilight 6:33 AM CDT 7:42 PM CDT
Nautical Twilight 6:00 AM CDT 8:14 PM CDT
Astronomical Twilight 5:27 AM CDT 8:47 PM CDT
Moon 7:47 PM CDT (9/20) 8:16 AM CDT (9/20)
Length of Visible Light 13h 09m
Length of Day
12h 14m
Full, 98% of the Moon is Illuminated
Sep 20
Full
Sep 26
Last Quarter
Oct 4
New
Oct 11
First Quarter
Oct 18
Full

Hourly Weather History & Observations

Time (CDT) Temp. Dew Point Humidity Pressure Visibility Wind Dir Wind Speed Gust Speed Precip Events Conditions
12:15 AM 63.7 °F 58.5 °F 83% 29.90 in 10.0 mi NW 6.9 mph - N/A   Mostly Cloudy
12:35 AM 62.8 °F 58.3 °F 85% 29.91 in 10.0 mi West 3.5 mph - N/A   Overcast
12:55 AM 62.6 °F 57.4 °F 83% 29.91 in 10.0 mi West 6.9 mph - N/A   Overcast
1:15 AM 61.7 °F 55.6 °F 80% 29.91 in 10.0 mi WNW 8.1 mph - N/A   Overcast
1:35 AM 61.0 °F 54.9 °F 80% 29.92 in 10.0 mi WNW 8.1 mph - N/A   Overcast
1:55 AM 60.1 °F 53.8 °F 80% 29.92 in 10.0 mi NW 12.7 mph 17.3 mph N/A   Scattered Clouds
2:15 AM 59.5 °F 52.9 °F 79% 29.93 in 10.0 mi NW 11.5 mph 16.1 mph N/A   Scattered Clouds
2:35 AM 59.9 °F 52.2 °F 76% 29.94 in 10.0 mi NW 10.4 mph 19.6 mph N/A   Mostly Cloudy
2:55 AM 59.7 °F 52.2 °F 76% 29.94 in 10.0 mi NW 11.5 mph 17.3 mph N/A   Overcast
3:15 AM 59.0 °F 51.8 °F 77% 29.93 in 10.0 mi NW 10.4 mph - N/A   Mostly Cloudy
3:35 AM 59.0 °F 51.4 °F 76% 29.93 in 10.0 mi NW 11.5 mph - N/A   Mostly Cloudy
3:55 AM 59.0 °F 51.4 °F 76% 29.93 in 10.0 mi NW 10.4 mph - N/A   Overcast
4:15 AM 58.5 °F 51.4 °F 77% 29.94 in 10.0 mi WNW 9.2 mph - N/A   Overcast
4:35 AM 58.6 °F 51.4 °F 77% 29.94 in 10.0 mi NW 9.2 mph - N/A   Overcast
4:55 AM 57.6 °F 50.9 °F 78% 29.95 in 10.0 mi WNW 10.4 mph - N/A   Overcast
5:15 AM 56.7 °F 50.2 °F 79% 29.95 in 10.0 mi WNW 9.2 mph - N/A   Scattered Clouds
5:35 AM 55.4 °F 50.0 °F 82% 29.96 in 10.0 mi WNW 8.1 mph - N/A   Clear
5:55 AM 54.5 °F 50.0 °F 85% 29.97 in 10.0 mi WNW 8.1 mph - N/A   Clear
6:15 AM 54.5 °F 50.0 °F 85% 29.97 in 10.0 mi WNW 9.2 mph - N/A   Clear
6:35 AM 54.0 °F 49.3 °F 84% 29.98 in 10.0 mi WNW 9.2 mph - N/A   Clear
6:55 AM 53.6 °F 49.1 °F 85% 29.98 in 10.0 mi WNW 10.4 mph - N/A   Clear
7:15 AM 53.6 °F 48.7 °F 84% 29.99 in 10.0 mi WNW 8.1 mph - N/A   Clear
7:35 AM 53.4 °F 48.6 °F 84% 30.00 in 10.0 mi WNW 9.2 mph - N/A   Clear
7:55 AM 53.2 °F 48.2 °F 83% 30.00 in 10.0 mi WNW 9.2 mph - N/A   Clear
8:15 AM 53.1 °F 48.0 °F 83% 30.01 in 10.0 mi WNW 9.2 mph - N/A   Clear
8:35 AM 52.7 °F 48.0 °F 84% 30.01 in 10.0 mi West 6.9 mph - N/A   Clear
8:55 AM 53.1 °F 48.2 °F 84% 30.01 in 10.0 mi West 8.1 mph - N/A   Clear
9:15 AM 54.3 °F 48.6 °F 81% 30.01 in 10.0 mi West 8.1 mph - N/A   Clear
9:35 AM 55.9 °F 48.9 °F 77% 30.01 in 10.0 mi WNW 10.4 mph - N/A   Clear
9:55 AM 57.2 °F 48.6 °F 73% 30.01 in 10.0 mi WNW 13.8 mph 19.6 mph N/A   Clear
10:15 AM 58.1 °F 48.9 °F 71% 30.01 in 10.0 mi WNW 11.5 mph - N/A   Clear
10:35 AM 58.5 °F 48.9 °F 71% 30.01 in 10.0 mi West 13.8 mph 17.3 mph N/A   Clear
10:55 AM 59.2 °F 48.0 °F 66% 30.01 in 10.0 mi WNW 12.7 mph 18.4 mph N/A   Clear
11:15 AM 60.4 °F 46.8 °F 61% 30.01 in 10.0 mi WNW 12.7 mph 19.6 mph N/A   Clear
11:35 AM 61.2 °F 45.3 °F 56% 30.01 in 10.0 mi WNW 18.4 mph 23.0 mph N/A   Clear
11:55 AM 61.7 °F 45.1 °F 55% 30.00 in 10.0 mi WNW 13.8 mph - N/A   Clear
12:15 PM 62.6 °F 45.5 °F 54% 30.00 in 10.0 mi WNW 12.7 mph 21.9 mph N/A   Clear
12:35 PM 62.8 °F 44.8 °F 52% 29.99 in 10.0 mi WNW 13.8 mph - N/A   Clear
12:55 PM 64.0 °F 45.5 °F 51% 29.99 in 10.0 mi WNW 15.0 mph 21.9 mph N/A   Clear
1:15 PM 64.4 °F 46.0 °F 51% 29.99 in 10.0 mi WNW 11.5 mph 21.9 mph N/A   Clear
1:35 PM 64.9 °F 47.1 °F 52% 29.98 in 10.0 mi WNW 15.0 mph - N/A   Scattered Clouds
1:55 PM 66.2 °F 48.0 °F 52% 29.98 in 10.0 mi WNW 17.3 mph 23.0 mph N/A   Scattered Clouds
2:15 PM 67.1 °F 47.3 °F 49% 29.97 in 10.0 mi WNW 13.8 mph 20.7 mph N/A   Mostly Cloudy
2:35 PM 66.9 °F 47.5 °F 50% 29.97 in 10.0 mi West 12.7 mph 20.7 mph N/A   Mostly Cloudy
2:55 PM 65.7 °F 47.3 °F 51% 29.96 in 10.0 mi WNW 13.8 mph 20.7 mph N/A   Scattered Clouds
3:15 PM 68.0 °F 48.4 °F 49% 29.96 in 10.0 mi WNW 12.7 mph 17.3 mph N/A   Scattered Clouds
3:35 PM 65.5 °F 47.7 °F 53% 29.95 in 10.0 mi WNW 9.2 mph - N/A   Scattered Clouds
3:55 PM 66.9 °F 47.5 °F 50% 29.94 in 10.0 mi WNW 11.5 mph 18.4 mph N/A   Scattered Clouds
4:15 PM 68.4 °F 48.0 °F 48% 29.94 in 10.0 mi West 13.8 mph - N/A   Scattered Clouds
4:35 PM 69.3 °F 48.9 °F 48% 29.94 in 10.0 mi WNW 12.7 mph 18.4 mph N/A   Mostly Cloudy
4:55 PM 67.3 °F 47.8 °F 50% 29.94 in 10.0 mi WNW 11.5 mph - N/A   Mostly Cloudy
5:15 PM 68.0 °F 47.8 °F 48% 29.94 in 10.0 mi West 9.2 mph - N/A   Mostly Cloudy
5:35 PM 68.0 °F 47.8 °F 48% 29.94 in 10.0 mi WNW 5.8 mph - N/A   Mostly Cloudy
5:55 PM 67.1 °F 47.8 °F 50% 29.94 in 10.0 mi NW 5.8 mph - N/A   Mostly Cloudy
6:15 PM 66.2 °F 48.4 °F 53% 29.95 in 10.0 mi WNW 6.9 mph - N/A   Mostly Cloudy
6:35 PM 64.9 °F 47.3 °F 53% 29.94 in 10.0 mi WNW 8.1 mph - N/A   Mostly Cloudy
6:55 PM 62.4 °F 48.6 °F 60% 29.94 in 10.0 mi West 4.6 mph - N/A   Scattered Clouds
7:15 PM 60.4 °F 48.7 °F 65% 29.94 in 10.0 mi West 4.6 mph - N/A   Clear
7:35 PM 59.0 °F 48.9 °F 69% 29.95 in 10.0 mi WSW 4.6 mph - N/A   Clear
7:55 PM 57.2 °F 48.6 °F 73% 29.95 in 10.0 mi West 4.6 mph - N/A   Clear
8:15 PM 56.8 °F 48.4 °F 73% 29.97 in 10.0 mi West 5.8 mph - N/A   Clear
8:35 PM 55.8 °F 48.2 °F 76% 29.97 in 10.0 mi West 5.8 mph - N/A   Clear
8:55 PM 54.9 °F 48.2 °F 78% 29.97 in 10.0 mi West 4.6 mph - N/A   Clear
9:15 PM 54.5 °F 47.8 °F 78% 29.98 in 10.0 mi West 5.8 mph - N/A   Clear
9:35 PM 54.5 °F 47.3 °F 77% 29.98 in 10.0 mi West 5.8 mph - N/A   Clear
9:55 PM 54.5 °F 47.3 °F 77% 29.98 in 10.0 mi WNW 6.9 mph - N/A   Clear
10:15 PM 53.1 °F 46.8 °F 79% 29.98 in 10.0 mi WNW 6.9 mph - N/A   Clear
10:35 PM 53.4 °F 46.8 °F 78% 29.99 in 10.0 mi WNW 6.9 mph - N/A   Clear
10:55 PM 52.3 °F 46.4 °F 80% 29.99 in 10.0 mi WNW 5.8 mph - N/A   Clear
11:15 PM 52.0 °F 46.0 °F 80% 29.99 in 10.0 mi NW 4.6 mph - N/A   Clear
11:35 PM 52.5 °F 46.4 °F 80% 29.99 in 10.0 mi NW 8.1 mph - N/A   Clear
11:55 PM 51.6 °F 46.0 °F 81% 30.00 in 10.0 mi NNW 5.8 mph - N/A   Clear